Location: La Brionne
(46.1728°N, 1.7849°E)
Time: 08:43:27
(UTC+00:00)

H-2A R/B - Pass Details

Date: 16 June 2021
Orbit: 574 x 597 km, 98.2° (Epoch: 31 July)

Event Time Altitude Azimuth Distance (km) Brightness Sun altitude
Rises 22:00:34 0° 13° (NNE) 2,798 7.8 -15.9°
Reaches altitude 10° 22:02:44 10° 12° (NNE) 1,894 6.8 -16.0°
Maximum altitude 22:06:49 85° 287° (WNW) 584 3.4 -16.3°
Enters shadow 22:09:17 23° 198° (SSW) 1,228 4.7 -16.5°
